Lid_Strength_Index
5 2 1 1 1 1 1 1 1 1 2 3 4 5 5 7 7 7 8 9 9 9 8 8 9 8 9 10 9 10 11 10 11 11 11 11 11 11 10 10 10 10 10
5 4 1 1 1 1 1 1 2 2 3 4 6 7 7 8 7 8 9 10 9 9 9 10 9 10 10 10 10 11 11 12 12 13 12 12 12 11 11 11 11 10 10
5 5 4 3 3 2 2 3 4 5 6 8 8 9 9 9 8 8 10 9 9 9 10 10 11 11 12 11 11 12 12 12 12 13 13 12 12 12 12 12 11 11 10
6 6 5 5 4 5 6 6 8 8 10 10 9 9 11 10 10 11 10 10 10 10 10 11 11 11 12 12 12 13 12 13 13 13 13 13 13 13 12 13 13 12 12
6 6 6 6 6 5 7 9 11 10 10 11 12 13 12 13 13 13 12 11 11 11 11 12 12 12 12 12 13 13 13 13 13 13 14 13 14 14 14 13 13 13 12
6 7 8 8 8 8 9 11 10 12 13 12 13 12 14 15 11 11 12 12 12 13 14 14 14 14 13 13 12 11 11 13 14 14 14 14 14 14 13 13 13 14 16
6 8 11 11 11 11 12 12 12 12 12 13 13 13 14 13 12 11 11 12 13 13 14 14 15 14 13 13 12 12 13 12 12 13 14 14 14 13 13 14 14 14 14
8 11 12 12 12 13 12 12 13 13 13 13 13 14 13 13 12 11 12 12 13 14 14 14 15 14 13 13 13 13 13 13 13 13 13 13 12 12 12 13 13 13 12
10 11 12 12 13 13 13 13 13 13 13 14 13 13 14 14 10 11 12 13 14 14 14 14 13 13 13 12 13 13 13 13 11 11 11 11 10 10 10 13 15 14 14
9 9 10 11 12 12 12 13 13 13 14 14 14 14 13 13 10 11 13 14 14 15 15 14 13 13 12 12 13 13 15 14 13 14 13 12 12 12 10 12 13 13 13
10 11 11 11 12 12 12 13 13 13 14 14 14 13 14 12 12 12 12 14 14 15 15 14 13 12 12 12 12 13 13 13 13 14 14 14 14 13 12 11 10 11 12
12 12 12 13 12 13 13 13 13 14 13 14 14 14 13 14 13 12 12 13 13 14 14 13 13 12 12 12 12 11 11 12 13 15 15 15 15 14 12 11 10 10 10
13 13 13 13 13 13 13 14 14 13 14 14 15 15 15 14 13 12 12 12 12 13 13 13 12 12 12 12 11 11 12 13 14 15 16 15 14 13 13 12 11 10 10
13 13 13 13 14 13 13 13 14 14 14 15 14 14 15 15 14 13 13 12 12 12 13 13 13 13 13 12 13 12 13 14 15 15 15 14 14 15 15 13 12 12 12
13 14 14 13 13 13 13 13 13 13 13 14 13 14 15 16 15 13 13 13 12 13 13 13 14 15 15 14 14 14 15 15 17 16 15 16 16 15 15 14 15 13 14
13 13 13 13 13 14 14 15 14 13 12 12 12 13 14 14 13 13 12 11 11 12 14 15 16 15 15 14 15 15 16 17 16 15 16 17 17 16 16 16 15 15 15
13 13 13 13 13 14 14 14 16 16 14 13 13 13 13 13 13 12 12 11 11 12 15 15 15 15 15 15 15 16 16 16 17 17 18 17 17 17 18 17 16 16 16
13 14 13 13 13 13 14 14 14 15 16 15 14 14 13 12 13 12 11 11 14 13 14 15 15 15 15 16 16 17 17 17 19 19 18 19 19 19 19 18 17 19 18
13 13 13 13 13 14 14 14 14 14 14 13 15 14 13 12 12 12 12 13 14 14 14 14 14 15 16 16 17 17 18 18 19 20 20 20 20 19 19 19 18 19 19
14 15 14 13 14 14 14 14 14 13 13 13 15 14 14 14 15 15 14 13 14 13 13 14 15 16 17 17 17 18 19 19 20 21 21 20 19 19 19 21 20 20 20
15 15 17 14 14 14 14 14 14 14 15 14 14 14 14 15 14 14 14 14 13 13 14 15 16 17 18 18 17 17 18 18 18 19 19 19 19 20 20 19 20 20 20
17 17 17 17 16 16 16 15 15 15 15 16 15 15 14 15 15 14 14 13 13 14 15 16 17 17 18 18 18 18 18 19 18 18 18 19 19 19 19 19 19 18 18
19 19 18 18 18 19 19 18 18 18 17 17 17 17 18 17 16 16 16 15 16 17 17 17 18 18 18 18 18 18 18 19 18 18 19 19 20 20 19 19 19 19 19
20 20 20 19 19 20 19 19 18 20 20 19 18 18 19 18 18 17 16 16 16 17 18 19 19 18 18 19 19 19 18 17 17 18 18 19 19 19 19 19 19 19 19
22 21 21 21 21 20 20 19 19 19 19 19 19 19 19 19 19 18 17 17 17 18 18 19 20 20 19 19 19 19 20 19 19 19 19 20 20 19 19 20 20 20 20
23 23 23 23 23 22 22 22 21 21 21 20 20 19 19 19 20 19 19 19 19 19 19 19 20 20 20 20 20 19 19 18 19 19 20 20 21 20 20 20 21 21 21